Time,B instrument,Bx,By,Bz,sigma B,Ion instrument,Status,Tp_par,Tp_perp,carrot,r_sun,clat,clong,earth_he_angle,n_p,vp_x,vp_y,vp_z,vth_p_par,vth_p_perp
1980-01-08 00:00:07,1,-6.47143,2.10714,1.21429,0.266592,1,1,52471.3,113934.0,1690,0.80459255,4.1701307,146.91431,293.68774,5.7864,369.427,-24.9846,14.2408,29.4319,43.3694
1980-01-08 00:00:48,1,-6.43846,1.84615,1.73077,0.364878,1,1,45305.2,111352.0,1690,0.80459255,4.1701298,146.9104,293.68774,5.25597,371.582,-23.274,17.233,27.3484,42.8753
1980-01-08 00:01:28,1,-6.45714,1.54286,1.64286,0.403808,1,1,52991.1,104869.0,1690,0.80459803,4.1700554,146.90259,293.68774,5.35839,371.336,-26.8141,19.4616,29.5774,41.6085
1980-01-08 00:02:09,1,-6.42308,1.36923,1.85385,0.370351,1,1,51433.7,92463.7,1690,0.80460352,4.169981,146.89478,293.68774,4.95146,369.002,-35.8233,14.9312,29.1395,39.07
1980-01-08 00:02:49,1,-6.36923,1.2,2.25385,0.348624,1,1,43687.4,99074.2,1690,0.80460352,4.169981,146.89087,293.68774,5.34799,371.409,-34.001,22.9285,26.8557,40.4425
1980-01-08 00:03:30,1,-6.38571,1.32857,2.21429,0.364776,1,1,50474.4,112328.0,1690,0.80460906,4.1699066,146.88306,293.68774,5.49098,371.554,-30.0551,22.2594,28.8665,43.0627
1980-01-08 00:04:10,1,-6.54286,1.17143,1.87143,0.438457,1,1,49909.1,111619.0,1690,0.80461454,4.1698313,146.87915,293.68774,5.66502,371.608,-34.616,18.1568,28.7043,42.9267
1980-01-08 00:04:51,1,-6.45714,1.27143,2.01429,0.287849,1,1,54055.7,102845.0,1690,0.80461454,4.1698313,146.87134,293.68774,5.22561,372.736,-35.0646,18.2999,29.873,41.2049
1980-01-08 00:05:31,1,-6.20769,1.56923,2.56154,0.428566,1,1,41076.0,102768.0,1690,0.80462009,4.1697569,146.86353,293.68774,5.26089,373.504,-27.2081,24.5529,26.0407,41.1895
1980-01-08 00:06:12,1,-6.35,1.52143,2.04286,0.563969,1,1,49760.0,99726.4,1690,0.80462557,4.1696825,146.85962,293.68774,5.0394,371.983,-27.7655,20.1305,28.6615,40.5754
1980-01-08 00:06:51,1,-6.49231,2.1,0.869231,0.397775,1,1,50714.6,100638.0,1690,0.80462557,4.1696825,146.85181,293.68774,5.46397,373.153,-28.3483,14.9968,28.9351,40.7605
1980-01-08 00:07:32,1,-6.62857,2.08571,0.757143,0.264575,1,1,41815.8,122572.0,1690,0.80463111,4.1696072,146.8479,293.68774,5.13201,381.139,-45.0855,7.48381,26.2741,44.9836
1980-01-08 00:08:12,1,-6.44286,2.20714,0.814286,0.435948,1,1,57031.6,107651.0,1690,0.8046366,4.1695328,146.84009,293.68774,5.13739,371.556,-23.7462,14.3835,30.6843,42.1566
1980-01-08 00:08:53,1,-5.80769,3.27692,1.85385,0.587342,1,1,49044.6,94977.5,1690,0.8046366,4.1695328,146.83618,293.68774,5.26177,378.648,-9.46113,18.3841,28.4547,39.5975
1980-01-08 00:09:34,1,-5.20769,4.77692,0.392308,0.614037,1,1,36143.8,112927.0,1690,0.80464208,4.1694584,146.82837,293.68774,5.32619,382.265,1.01583,3.5717,24.4273,43.1775
1980-01-08 00:10:15,1,-5.19231,4.69231,0.853846,0.604519,1,1,48836.1,103038.0,1690,0.80464762,4.169384,146.82056,293.68774,5.57229,384.249,-0.48784,12.7773,28.3941,41.2435
1980-01-08 00:10:55,1,-5.67857,3.92143,0.828571,0.304222,1,1,45882.7,105983.0,1690,0.80464762,4.169383,146.81665,293.68774,5.10226,378.463,-6.26186,10.475,27.5222,41.8289
1980-01-08 00:11:36,1,-5.66429,3.72857,1.34286,0.49099,1,1,41899.7,101307.0,1690,0.80465311,4.1693087,146.80884,293.68774,5.15551,376.277,-10.8932,9.75823,26.3005,40.8957
1980-01-08 00:12:16,1,-5.78571,3.89286,-0.214286,0.57592,1,1,56519.7,103492.0,1690,0.80465865,4.1692343,146.80493,293.68774,5.51367,377.653,-13.1329,-1.36591,30.5463,41.3344
1980-01-08 00:12:57,1,-5.43077,4.68462,-0.684615,0.357506,1,1,54785.6,97073.7,1690,0.80465865,4.1692343,146.79712,293.68774,5.27325,382.037,-4.14687,-4.60754,30.074,40.0321
1980-01-08 00:13:37,-1,nan,nan,nan,nan,1,4,nan,nan,1690,0.80466413,4.1691599,146.79321,293.68774,nan,nan,nan,nan,nan,nan
1980-01-08 00:14:18,1,-5.36923,3.73846,0.223077,2.1793,1,1,54310.3,101339.0,1690,0.80466968,4.1690845,146.7854,293.68774,5.58765,385.756,-1.56121,-10.8183,29.9432,40.9021
1980-01-08 00:14:58,1,-5.44,0.293333,3.54,0.789993,1,1,64794.7,115628.0,1690,0.80466968,4.1690845,146.77759,293.68774,5.69876,373.595,-40.2353,31.4548,32.706,43.6908
1980-01-08 00:15:39,1,-5.53846,-0.523077,3.47692,0.671217,1,1,53034.5,105241.0,1690,0.80467516,4.1690102,146.77393,293.68799,5.06418,376.256,-53.5122,30.9976,29.5895,41.6822
1980-01-08 00:16:19,1,-5.50714,0.478571,3.25,0.729376,1,1,41957.5,99267.8,1690,0.80468065,4.1689358,146.76611,293.68799,5.25561,374.394,-31.0423,31.1952,26.3186,40.482
1980-01-08 00:17:00,1,-5.83077,1.0,2.59231,1.3283,1,1,49629.1,111832.0,1690,0.80468619,4.1688604,146.76221,293.68799,5.29652,372.944,-39.6737,24.7703,28.6237,42.9677
1980-01-08 00:17:40,1,-5.77143,2.42857,2.6,0.671732,1,1,60993.4,105700.0,1690,0.80468619,4.1688604,146.75439,293.68799,5.13524,377.282,-17.3154,23.5908,31.7321,41.7731
1980-01-08 00:18:21,1,-6.02308,2.65385,1.25385,0.833329,1,1,57483.7,93303.4,1690,0.80469167,4.168786,146.74658,293.68799,5.53041,374.616,-18.2672,11.2389,30.8057,39.247
1980-01-08 00:19:01,1,-5.9,1.08462,2.83846,0.567565,1,1,53939.4,106058.0,1690,0.80469722,4.1687117,146.74268,293.68799,5.82222,374.502,-32.9075,23.2693,29.8408,41.8436
1980-01-08 00:19:42,1,-5.87857,0.792857,3.17857,0.911687,1,1,49370.4,105900.0,1690,0.80469722,4.1687117,146.73486,293.68799,5.27023,372.491,-31.4312,21.6271,28.549,41.8124
1980-01-08 00:20:22,1,-5.42143,1.41429,3.82857,0.668115,1,1,58038.9,102094.0,1690,0.8047027,4.1686373,146.73096,293.68799,5.5442,380.035,-30.7159,32.6767,30.9541,41.0542
1980-01-08 00:21:03,1,-6.02143,-0.435714,2.69286,0.473965,1,1,59295.1,113739.0,1690,0.80470824,4.1685619,146.72314,293.68799,5.86636,375.425,-41.0011,24.0035,31.2872,43.3323
1980-01-08 00:21:43,1,-5.40667,0.76,3.5,0.716721,1,1,47399.0,104076.0,1690,0.80470824,4.1685619,146.71924,293.68799,5.31422,375.283,-35.6659,31.7629,27.9732,41.4508
1980-01-08 00:22:24,1,-5.12308,0.130769,3.84615,0.87982,1,1,53324.9,108405.0,1690,0.80471373,4.1684875,146.71143,293.68799,5.17894,381.563,-38.0207,41.7645,29.6704,42.3041
1980-01-08 00:23:04,1,-6.00714,1.8,2.18571,0.627149,1,1,41018.5,96888.4,1690,0.80471921,4.1684132,146.70361,293.68799,4.56607,374.518,-19.7264,26.5271,26.0224,39.9939
1980-01-08 00:23:45,1,-6.01538,2.61538,1.3,0.563904,1,1,45039.2,99124.5,1690,0.80471927,4.1684132,146.69971,293.68799,5.28502,373.705,-17.0189,8.79209,27.268,40.4528
1980-01-08 00:24:25,1,-5.23077,2.74615,2.79231,1.08093,1,1,77091.4,101402.0,1690,0.80472475,4.1683378,146.69189,293.68799,5.61621,386.843,-0.668647,16.5224,35.6747,40.9148
1980-01-08 00:25:06,1,-5.36923,2.89231,2.11538,1.1332,1,1,41739.9,118894.0,1690,0.80473024,4.1682634,146.68799,293.68799,5.61354,376.567,-15.1809,20.4983,26.2503,44.3035
1980-01-08 00:25:46,1,-5.24667,2.71333,2.88667,0.578043,1,1,62127.9,105910.0,1690,0.80473024,4.1682634,146.68018,293.68799,5.93147,383.352,-20.8617,35.3193,32.0259,41.8144
1980-01-08 00:26:27,1,-5.82143,1.69286,2.33571,0.823104,1,1,64802.7,110455.0,1690,0.80473578,4.168189,146.67627,293.68799,5.32354,376.537,-21.5484,22.9558,32.708,42.7023
1980-01-08 00:27:07,1,-5.42143,2.07857,2.85714,0.866084,1,1,67767.8,102367.0,1690,0.80474126,4.1681137,146.66846,293.68799,5.6809,375.092,-29.8466,25.9973,33.448,41.1092
1980-01-08 00:27:48,1,-4.96154,2.05385,3.05385,2.10559,1,1,38597.5,78795.5,1690,0.80474126,4.1681137,146.66064,293.68799,3.86928,385.96,-12.4315,36.6463,25.2428,36.0669
1980-01-08 00:28:28,1,-5.80714,1.27857,2.61429,0.41833,1,1,64211.3,105553.0,1690,0.80474681,4.1680393,146.65674,293.68799,5.63049,376.107,-28.1338,27.6921,32.5584,41.7439
1980-01-08 00:29:09,1,-6.00769,1.21538,2.37692,0.284095,1,1,55204.1,98939.5,1690,0.80475229,4.1679649,146.64893,293.68799,4.88681,371.78,-30.676,24.3688,30.1886,40.415
1980-01-08 00:29:49,1,-5.98667,1.41333,2.28667,0.420476,1,1,65952.1,100820.0,1690,0.80475229,4.1679649,146.64502,293.68799,5.77675,374.053,-27.7333,19.3766,32.9968,40.7972
1980-01-08 00:30:30,1,-5.87143,2.26429,1.98571,0.434072,1,1,45325.3,118347.0,1690,0.80475783,4.1678905,146.63745,293.68823,5.45959,374.909,-17.2371,19.377,27.3545,44.2015
1980-01-08 00:31:10,1,-6.04286,1.12857,2.56429,0.616152,1,1,57243.5,103147.0,1690,0.80476332,4.1678152,146.62964,293.68823,5.60866,374.49,-28.1134,25.7044,30.7412,41.2653
1980-01-08 00:31:51,1,-5.69231,-1.36923,2.92308,0.462435,1,1,49894.2,96246.2,1690,0.80476332,4.1678152,146.62573,293.68823,5.01383,370.641,-47.4246,29.6846,28.7001,39.8611
1980-01-08 00:32:31,1,-6.01429,-0.285714,2.75,0.644165,1,1,52703.0,94777.6,1690,0.8047688,4.1677408,146.61792,293.68823,4.81394,372.683,-46.1673,22.6128,29.4968,39.5559
1980-01-08 00:33:52,1,-6.38333,2.03333,0.233333,0.626498,1,1,76733.5,102851.0,1690,0.80477434,4.1676664,146.6062,293.68823,5.81391,370.651,-20.553,3.15042,35.5918,41.2061
1980-01-08 00:34:33,1,-6.12308,1.63077,2.22308,0.450115,1,1,37819.6,101357.0,1690,0.80477983,4.1675911,146.60229,293.68823,4.92288,373.254,-20.2453,26.5678,24.9871,40.9058
1980-01-08 00:35:13,1,-6.18667,1.10667,2.23333,0.471876,1,1,60147.3,97565.9,1690,0.80478537,4.1675167,146.59448,293.68823,5.37421,368.444,-33.0928,19.695,31.5113,40.1335
1980-01-08 00:35:54,1,-6.30769,1.40769,2.06923,0.449457,1,1,40328.8,103424.0,1690,0.80478537,4.1675167,146.58667,293.68823,4.93923,371.22,-25.0219,25.9753,25.8027,41.3208
1980-01-08 00:36:34,1,-6.46154,1.43846,1.94615,0.423706,1,1,54139.1,103722.0,1690,0.80479085,4.1674423,146.58276,293.68823,5.32727,371.898,-23.0948,20.8866,29.896,41.3803
1980-01-08 00:37:15,1,-6.19286,2.13571,1.98571,0.453445,1,1,50955.3,95629.4,1690,0.8047964,4.167367,146.57495,293.68823,5.28717,374.187,-19.1701,21.8064,29.0036,39.7332
1980-01-08 00:37:55,1,-6.30714,1.35714,1.59286,0.534045,1,1,75789.5,111882.0,1690,0.8047964,4.167367,146.57104,293.68823,6.07775,369.422,-23.8592,13.0929,35.3722,42.9771
1980-01-08 00:38:36,1,-6.67692,-0.0461538,1.75385,0.437448,1,1,53657.8,103351.0,1690,0.80480188,4.1672926,146.56323,293.68823,5.45753,370.895,-42.6635,19.8319,29.7628,41.3062
1980-01-08 00:39:16,1,-6.55714,-0.742857,1.65714,0.31655,1,1,64107.0,98486.3,1690,0.80480736,4.1672182,146.55933,293.68823,5.82494,371.588,-46.1109,13.5568,32.532,40.3223
1980-01-08 00:39:57,1,-6.22308,-1.16923,2.36923,0.68716,1,1,70060.0,86699.8,1690,0.80480736,4.1672182,146.55151,293.68823,5.36848,373.979,-43.2638,20.8348,34.0089,37.8327
1980-01-08 00:40:37,1,-6.48,0.00666667,2.0,0.612826,1,1,67619.6,111197.0,1690,0.80481291,4.1671438,146.5437,293.68823,6.04972,368.939,-40.4276,17.3552,33.4114,42.8453
1980-01-08 00:41:18,1,-5.92308,-1.46154,2.98462,0.687849,1,1,61945.9,93448.9,1690,0.80481839,4.1670685,146.53979,293.68823,5.2773,377.647,-53.58,27.6501,31.9789,39.2776
1980-01-08 00:41:58,1,-6.48,-0.48,1.69333,0.65204,1,1,67908.2,82773.3,1690,0.80481839,4.1670685,146.53198,293.68823,4.9147,370.184,-39.3639,17.186,33.4826,36.966
1980-01-08 00:42:39,1,-6.31429,-1.19286,2.0,0.30313,1,1,72215.1,100398.0,1690,0.80482394,4.1669941,146.52808,293.68823,5.51098,373.944,-49.1463,18.918,34.528,40.7119
1980-01-08 00:43:19,1,-6.53571,-0.671429,1.65714,0.547396,1,1,72423.3,99372.9,1690,0.80482942,4.1669197,146.52026,293.68823,5.83596,371.605,-45.105,17.7291,34.5778,40.5034
1980-01-08 00:44:00,1,-6.78462,-0.676923,0.830769,0.283887,1,1,46167.8,109746.0,1690,0.80483496,4.1668444,146.51245,293.68823,5.40081,366.915,-45.6299,7.27134,27.6075,42.565
1980-01-08 00:44:40,1,-6.9,-0.135714,0.992857,0.400128,1,1,74299.0,108141.0,1690,0.80483496,4.1668444,146.50854,293.68823,5.28779,367.961,-35.0155,9.76968,35.0227,42.2526
1980-01-08 00:45:21,1,-6.77692,-0.146154,1.09231,0.388747,1,1,39242.5,99050.3,1690,0.80484045,4.16677,146.50098,293.68848,5.00232,364.292,-34.8008,15.3266,25.4528,40.4376
1980-01-08 00:46:01,1,-6.72308,0.546154,1.2,0.617401,1,1,73803.7,104043.0,1690,0.80484593,4.1666956,146.49707,293.68848,5.99683,367.068,-39.4033,14.0195,34.9057,41.4443
1980-01-08 00:46:42,1,-6.55,-0.207143,1.77857,0.549536,1,1,41719.1,100005.0,1690,0.80484593,4.1666956,146.48926,293.68848,5.0097,365.548,-37.8387,18.9003,26.2437,40.6321
1980-01-08 00:47:22,1,-6.60769,-0.146154,1.51538,0.557361,1,1,54254.5,98750.6,1690,0.80485147,4.1666203,146.48535,293.68848,5.65329,364.905,-35.9159,14.9224,29.9279,40.3764
1980-01-08 00:48:03,1,-6.48462,-1.05385,1.29231,0.433098,1,1,51190.4,99704.8,1690,0.80485696,4.1665459,146.47754,293.68848,5.1324,365.531,-44.7637,10.9403,29.0705,40.571
1980-01-08 00:48:43,1,-6.28462,-0.992308,0.307692,1.47636,1,1,66545.3,113225.0,1690,0.80485696,4.1665459,146.46973,293.68848,6.14261,371.192,-49.4836,4.22457,33.1449,43.2343
1980-01-08 00:49:24,1,-6.60714,-0.05,0.15,1.21006,1,1,45528.7,95860.3,1690,0.8048625,4.1664715,146.46582,293.68848,4.78455,366.381,-43.348,9.70912,27.4158,39.7811
1980-01-08 00:50:04,1,-6.60714,-0.514286,0.857143,0.458313,1,1,50152.8,103280.0,1690,0.80486798,4.1663971,146.45801,293.68848,5.47452,367.193,-42.4062,15.3943,28.7744,41.2921
1980-01-08 00:50:45,1,-6.41538,-1.29231,0.307692,0.74397,1,1,47512.7,102229.0,1690,0.80486798,4.1663971,146.4541,293.68848,5.0581,366.578,-45.0578,12.2994,28.0068,41.0815
1980-01-08 00:51:25,1,-6.41538,-1.70769,-0.0307692,0.461923,1,1,90146.4,88682.4,1690,0.80487353,4.1663218,146.44629,293.68848,5.46672,373.755,-52.5378,5.91647,38.5773,38.2628
1980-01-08 00:52:06,1,-6.09231,-2.63077,-0.584615,1.18171,1,1,64333.7,99399.1,1690,0.80487901,4.1662474,146.44238,293.68848,5.58156,376.727,-69.177,2.12668,32.5895,40.5088
1980-01-08 00:52:46,1,-6.18,-2.51333,-0.906667,0.727125,1,1,64273.0,108922.0,1690,0.80487901,4.1662474,146.43457,293.68848,5.46523,374.953,-63.7996,-4.99141,32.5741,42.4048
1980-01-08 00:53:27,1,-6.24615,-1.43846,-1.80769,0.702321,1,1,61080.2,106154.0,1690,0.80488455,4.166173,146.42676,293.68848,5.49932,375.298,-52.9078,-13.2639,31.7547,41.8626
1980-01-08 00:54:07,1,-6.67857,-0.328571,-0.292857,1.05294,1,1,59556.2,105949.0,1690,0.80489004,4.1660976,146.42285,293.68848,5.80098,370.778,-46.2592,-6.87425,31.3561,41.8221
1980-01-08 00:54:48,1,-6.76154,0.607692,-0.453846,0.903511,1,1,39620.9,100836.0,1690,0.80489004,4.1660976,146.41504,293.68848,5.05468,366.764,-23.7018,2.78077,25.5753,40.8006
1980-01-08 00:55:28,1,-5.77857,3.03571,-0.928571,1.46883,1,1,44845.4,82564.5,1690,0.80489552,4.1660233,146.41113,293.68848,4.47456,382.48,7.31518,18.5606,27.2093,36.9194
1980-01-08 00:56:09,1,-6.59231,0.484615,-1.36154,1.78362,1,1,43878.0,92835.0,1690,0.80490106,4.1659489,146.40332,293.68848,4.6755,372.37,-17.8705,-13.25,26.9142,39.1484
1980-01-08 00:56:49,1,-6.39231,2.06923,-0.538462,1.18541,1,1,52409.6,97942.6,1690,0.80490106,4.1659489,146.39551,293.68848,5.57706,371.516,-22.049,-3.1371,29.4146,40.2109
1980-01-08 00:57:30,1,-6.29286,2.34286,-1.61429,0.494304,1,1,37886.6,94620.7,1690,0.80490655,4.1658735,146.3916,293.68848,4.51358,370.258,-12.1699,-9.07766,25.0093,39.5231
1980-01-08 00:58:10,1,-5.48571,3.44286,-2.11429,1.17682,1,1,44944.3,111167.0,1690,0.80491209,4.1657991,146.38379,293.68848,5.3557,376.392,-9.64965,-14.8414,27.2392,42.8396
1980-01-08 00:58:51,1,-5.90714,0.457143,-2.77143,1.20215,1,1,72408.7,115921.0,1690,0.80491209,4.1657991,146.37988,293.68848,5.86932,376.155,-15.5263,-12.6607,34.5743,43.7461
1980-01-08 00:59:31,1,-4.85714,-1.85,-3.85714,0.877642,1,1,52680.4,109724.0,1690,0.80491757,4.1657248,146.37207,293.68848,5.69407,379.981,-55.1817,-29.5901,29.4905,42.5608
1980-01-08 01:00:12,1,-4.35714,-1.39286,-3.99286,1.81015,1,1,78561.8,101280.0,1690,0.80492312,4.1656504,146.36841,293.68872,5.3764,389.382,-66.3794,-29.4007,36.0133,40.8902
1980-01-08 01:00:52,1,-4.75,-1.93333,-3.66667,0.685768,1,1,66444.0,102559.0,1690,0.80492312,4.1656494,146.3606,293.68872,5.17392,380.56,-50.0144,-29.1852,33.1196,41.1476
1980-01-08 01:01:33,1,-5.52308,3.23077,-1.82308,0.602166,1,1,49971.6,106351.0,1690,0.8049286,4.165575,146.35278,293.68872,5.39378,379.182,-5.69906,-14.552,28.7223,41.9014
1980-01-08 01:02:13,1,-6.23333,1.28,-1.76667,0.641387,1,1,82360.0,108424.0,1690,0.80493408,4.1655006,146.34888,293.68872,6.20408,371.915,-27.0835,-12.2255,36.8736,42.3078
1980-01-08 01:02:54,1,-6.23333,1.10667,-1.95333,0.580804,1,1,48217.4,121029.0,1690,0.80493408,4.1655006,146.34106,293.68872,4.35806,410.279,-16.6261,-9.35959,28.2137,44.6994
1980-01-08 01:03:33,1,-5.83077,2.73077,-1.73077,0.852285,1,1,47049.6,104834.0,1690,0.80493963,4.1654263,146.33716,293.68872,5.23751,376.025,-9.01014,-7.63307,27.8699,41.6016
1980-01-08 01:04:14,1,-3.61538,5.21538,-1.7,1.4711,1,1,101954.0,102578.0,1690,0.80494511,4.1653509,146.32935,293.68872,5.70933,398.707,9.72645,0.369267,41.026,41.1514
1980-01-08 01:04:54,1,-2.36,6.29333,-0.926667,1.36662,1,1,92709.4,89920.3,1690,0.80494511,4.1653509,146.32544,293.68872,5.66512,416.122,23.0351,1.20736,39.1219,38.5289
1980-01-08 01:05:35,1,-4.30714,4.53571,-2.31429,0.885541,1,1,45736.9,89285.4,1690,0.80495059,4.1652765,146.31763,293.68872,5.27405,383.225,1.6992,-6.33803,27.4784,38.3927
1980-01-08 01:06:16,1,-5.23571,4.05,-1.4,0.545576,1,1,53826.9,100374.0,1690,0.80495614,4.1652021,146.30981,293.68872,5.16109,376.848,-4.33069,-5.17125,29.8097,40.7069
1980-01-08 01:06:57,1,-4.63846,3.83846,-3.00769,0.849016,1,1,62069.4,108655.0,1690,0.80495614,4.1652021,146.30591,293.68872,5.17539,378.735,-2.09984,-9.5002,32.0108,42.3528
1980-01-08 01:07:37,1,-3.6,3.48667,-4.46,0.955452,1,1,55515.3,90702.3,1690,0.80496162,4.1651268,146.2981,293.68872,4.95176,391.452,-4.35639,-31.5728,30.2736,38.6961
1980-01-08 01:08:18,1,-5.05714,2.98571,-3.01429,0.99314,1,1,61615.6,104639.0,1690,0.80496711,4.1650524,146.29419,293.68872,5.27791,383.624,-11.6776,-23.099,31.8936,41.5628
1980-01-08 01:08:58,1,-3.87857,3.67857,-4.1,1.01795,1,1,60129.6,101077.0,1690,0.80496711,4.1650524,146.28638,293.68872,5.14929,393.126,-3.47436,-32.8358,31.5066,40.8492
1980-01-08 01:09:39,1,-5.3,2.67857,-3.3,0.797477,1,1,46098.5,107579.0,1690,0.80497265,4.164978,146.27856,293.68872,5.13051,376.983,-11.7287,-20.7326,27.5868,42.1426
1980-01-08 01:10:19,1,-5.23571,2.65714,-3.02857,1.33884,1,1,60967.1,110217.0,1690,0.80497813,4.1649027,146.27466,293.68872,6.2157,377.236,-28.937,-25.4724,31.7253,42.6563
1980-01-08 01:11:00,1,-5.24615,2.37692,-2.91538,1.85207,1,1,43828.6,107881.0,1690,0.80498362,4.1648283,146.26685,293.68872,5.32779,374.141,-15.2502,-18.8208,26.899,42.2018
1980-01-08 01:11:40,1,-3.62143,4.93571,-2.47143,0.620155,1,1,82924.4,109097.0,1690,0.80498362,4.1648283,146.26294,293.68872,5.99493,392.957,5.33567,-17.6374,36.9998,42.4389
1980-01-08 01:12:21,1,-2.92143,3.92857,-4.22857,1.30222,1,1,81388.2,109328.0,1690,0.80498916,4.1647539,146.25513,293.68872,5.76992,404.711,-5.27377,-37.1318,36.6555,42.4839
1980-01-08 01:13:01,-1,nan,nan,nan,nan,1,4,nan,nan,1690,0.80499464,4.1646786,146.25122,293.68872,nan,nan,nan,nan,nan,nan
1980-01-08 01:13:42,1,-4.67857,3.72857,-2.47143,1.57844,1,1,73473.5,119267.0,1690,0.80499464,4.1646786,146.24341,293.68872,6.18441,393.627,2.15489,-18.9135,34.8276,44.3729
1980-01-08 01:14:22,1,-4.27333,3.98667,-1.87333,2.65023,1,1,63052.9,99466.1,1690,0.80500013,4.1646042,146.2356,293.68872,5.32796,375.303,-10.8129,-5.94005,32.2634,40.5224
1980-01-08 01:15:03,1,-2.12143,6.27857,-1.11429,0.761778,1,1,85668.6,88919.3,1690,0.80500567,4.1645298,146.23193,293.68896,5.68677,412.767,13.0248,2.96033,37.607,38.3139
1980-01-08 01:15:43,1,-1.74,6.11333,-0.86,2.15111,1,1,239626.0,95737.8,1690,0.80500567,4.1645298,146.22412,293.68896,6.672,426.19,15.2399,4.14065,62.8963,39.7557
1980-01-08 01:16:24,1,-4.43333,4.41333,-0.953333,1.10478,1,1,54263.9,115876.0,1690,0.80501115,4.1644545,146.22021,293.68896,5.60293,383.438,0.369903,-4.16234,29.9304,43.7375
1980-01-08 01:17:45,1,-6.16923,1.88462,-0.846154,1.50427,1,1,40412.5,114278.0,1690,0.8050167,4.1643801,146.2085,293.68896,4.77059,369.025,-15.7213,1.21561,25.8295,43.435
1980-01-08 01:18:25,1,-5.56154,2.04615,-2.06923,1.50361,1,1,76190.9,102940.0,1690,0.80502218,4.1643057,146.20068,293.68896,5.65115,376.564,-24.8606,-18.3449,35.4658,41.224
1980-01-08 01:19:06,1,-5.77143,2.45714,-1.92857,0.347586,1,1,82436.7,101990.0,1690,0.80502766,4.1642313,146.19287,293.68896,5.11933,375.974,-18.5503,-12.6146,36.8908,41.0333
1980-01-08 01:19:46,1,-5.9,1.79286,-2.31429,0.728326,1,1,44139.0,99332.9,1690,0.80502766,4.1642303,146.18896,293.68896,4.86315,372.475,-15.4326,-16.0434,26.9941,40.4953
1980-01-08 01:20:27,1,-6.18462,1.46923,-1.71538,0.591058,1,1,46200.6,109934.0,1690,0.80503321,4.164156,146.18115,293.68896,5.23965,368.396,-25.4856,-9.43898,27.6173,42.6013
1980-01-08 01:21:07,1,-5.67692,2.44615,-1.51538,0.711029,1,1,58466.6,103374.0,1690,0.80503869,4.1640816,146.17725,293.68896,5.44608,374.866,-11.5974,-7.96115,31.0679,41.3107
1980-01-08 01:21:48,1,-4.77692,3.31538,-2.31538,1.8617,1,1,54767.6,112600.0,1690,0.80503869,4.1640816,146.16943,293.68896,5.18372,377.778,-18.2349,-22.3932,30.0691,43.1149
1980-01-08 01:22:28,1,-5.38571,3.87857,-1.47143,0.345304,1,1,44632.4,100943.0,1690,0.80504417,4.1640072,146.16162,293.68896,5.18129,378.226,-6.32213,-3.88132,27.1446,40.8222
1980-01-08 01:23:09,1,-5.61429,3.24286,-1.1,0.586237,1,1,44715.1,102111.0,1690,0.80504972,4.1639318,146.15771,293.68896,4.79537,373.944,-6.77881,-3.69641,27.1697,41.0576
1980-01-08 01:23:49,1,-5.74615,2.89231,-1.63846,0.391477,1,1,39778.3,119729.0,1690,0.80504972,4.1639318,146.1499,293.68896,5.4923,372.139,-12.7298,-10.7943,25.626,44.4588
1980-01-08 01:24:30,1,-5.80769,2.84615,-1.05385,0.473436,1,1,43818.9,99706.8,1690,0.8050552,4.1638575,146.146,293.68896,4.86339,372.793,-9.57999,-2.91393,26.8961,40.5714
1980-01-08 01:25:10,1,-5.72308,2.90769,-0.761538,0.344526,1,1,44998.0,110785.0,1690,0.80506068,4.1637831,146.13818,293.68896,4.99426,369.742,-13.5067,-2.48854,27.2555,42.766
1980-01-08 01:25:51,1,-4.90714,3.83571,1.48571,0.980473,1,1,112645.0,103184.0,1690,0.80506068,4.1637831,146.13428,293.68896,5.02001,384.091,-7.44813,29.6213,43.1235,41.2729
1980-01-08 01:26:31,1,-5.28571,3.34286,-0.685714,0.881094,1,1,75936.8,108658.0,1690,0.80506623,4.1637077,146.12646,293.68896,5.58811,374.856,-8.19612,2.4245,35.4066,42.3534
1980-01-08 01:27:12,1,-5.94615,2.18462,-1.40769,0.346239,1,1,55314.0,127236.0,1690,0.80507171,4.1636333,146.11865,293.68896,5.56898,371.464,-20.5604,-9.75774,30.2187,45.8315
1980-01-08 01:27:52,1,-5.49286,2.69286,-1.71429,1.50133,1,1,76578.3,122698.0,1690,0.80507171,4.1636333,146.11475,293.68896,6.55791,374.138,-23.5522,-8.19118,35.5558,45.0067
1980-01-08 01:28:33,1,-5.43846,3.34615,-1.37692,0.987076,1,1,53981.7,101575.0,1690,0.8050772,4.163559,146.10693,293.68896,5.23718,375.138,-12.2762,-9.35861,29.8525,40.9497
1980-01-08 01:29:13,1,-5.47692,2.38462,-2.79231,0.660375,1,1,53499.6,116260.0,1690,0.80508274,4.1634836,146.10303,293.68896,5.48614,375.915,-7.79872,-12.5673,29.7189,43.81
1980-01-08 01:29:54,1,-5.63077,2.83077,-1.43846,0.856026,1,1,71005.3,106091.0,1690,0.80508274,4.1634836,146.09521,293.68896,5.67523,374.962,-9.02441,4.1988,34.2376,41.8501
1980-01-08 01:30:34,1,-5.54615,0.753846,-3.37692,0.71617,1,1,52226.0,109080.0,1690,0.80508822,4.1634092,146.09155,293.68921,4.87801,374.169,-26.6186,-25.5766,29.3631,42.4356
1980-01-08 01:31:15,1,-5.97143,1.66429,-2.12857,0.328338,1,1,34809.3,106146.0,1690,0.80509371,4.1633348,146.08374,293.68921,4.58836,367.904,-20.2663,-10.8503,23.9721,41.861
1980-01-08 01:31:55,1,-5.69286,2.02857,-1.9,1.73571,1,1,39854.9,114255.0,1690,0.80509371,4.1633348,146.07593,293.68921,4.4476,369.396,-24.6488,-15.6247,25.6507,43.4306
1980-01-08 01:32:36,1,-6.02308,2.71538,-1.54615,0.521264,1,1,51077.3,102567.0,1690,0.80509925,4.1632595,146.07202,293.68921,5.24954,374.783,-13.577,-11.0921,29.0383,41.1493
1980-01-08 01:33:16,1,-6.17143,2.18571,-1.32857,0.512298,1,1,65734.0,107129.0,1690,0.80510473,4.1631851,146.06421,293.68921,5.61916,373.149,-17.7876,-5.14659,32.9422,42.0545
1980-01-08 01:33:57,1,-5.95385,1.56923,-2.56154,0.607059,1,1,53670.9,91306.2,1690,0.80510473,4.1631851,146.0603,293.68921,5.37754,369.172,-28.0414,-9.93758,29.7665,38.8247
1980-01-08 01:34:37,1,-5.86923,1.53077,-2.66923,0.480631,1,1,58806.3,98447.6,1690,0.80511022,4.1631107,146.05249,293.68921,5.27599,372.705,-30.7367,-17.7924,31.158,40.3144
1980-01-08 01:35:18,1,-5.53571,1.95714,-2.91429,1.31322,1,1,51838.7,112538.0,1690,0.80511576,4.1630354,146.04468,293.68921,5.50879,371.441,-26.2959,-17.3791,29.254,43.1031